Voltar ao catálogo

EUTE 36D

AtivoComunicaçõesGEO
NORAD 59346·PAYLOAD·🇪🇺 EU

Lançado Mar 30, 2024 de Cape Canaveral Space Force Station

Loading…

TLE

AtualizadoSource: Space-Track

Época: Sep 14, 2026, 13:58 UTC

1 59346U 24059A   26257.58220771  .00000148  00000-0  00000-0 0  9994
2 59346   0.0014 172.7074 0000192 245.1581 181.1614  1.00270725  9049

Acompanhe EUTE 36D em tempo real com AllMySat

Download on the App Store